Wind_Speed
13 9 16 13 11 5 4 9 14 23 18 23 22 18 17 29 33 36 36 37 35 36 34 31 28 26 26 26 26 27 27 27 28 28 30 32 36 38 39 40 39 38 35 35
18 17 14 20 20 11 8 8 10 17 15 19 22 22 22 31 34 36 37 39 39 38 36 33 29 29 29 31 31 32 31 31 28 22 26 34 35 37 39 40 39 38 36 35
22 18 16 21 20 15 16 16 13 16 15 18 21 21 25 31 36 36 37 41 39 39 39 36 33 31 30 31 33 36 38 32 24 30 34 31 33 34 35 36 35 35 35 34
22 24 18 26 21 22 29 28 16 17 21 21 22 25 29 34 40 38 40 43 45 45 40 38 37 34 32 33 32 30 26 26 36 36 33 32 33 33 34 35 37 34 34 34
22 20 21 21 15 13 12 12 19 31 25 26 28 27 32 38 38 38 40 43 43 42 48 44 38 37 38 35 30 32 35 35 33 33 33 38 36 34 33 33 36 37 37 37
26 30 30 29 27 27 26 28 29 35 25 27 32 32 35 41 42 41 40 40 40 39 37 40 41 44 39 39 40 44 46 32 33 31 37 43 37 33 32 32 32 34 35 37
24 25 26 28 31 30 31 30 30 26 26 30 34 34 41 42 42 42 43 45 43 38 33 30 30 36 40 39 43 42 34 33 34 39 46 52 49 47 40 35 35 30 28 30
33 31 31 30 27 29 33 28 30 30 34 37 41 43 43 45 43 43 47 50 45 42 43 41 32 27 35 41 43 40 41 35 39 44 53 57 57 51 47 42 39 33 30 30
38 35 33 30 27 28 32 32 36 36 41 41 40 47 46 45 44 48 50 55 50 48 51 51 48 35 28 34 40 41 41 48 50 49 50 51 40 56 58 47 35 34 35 37
23 31 31 29 32 33 32 39 41 48 41 39 48 46 44 45 45 50 53 56 56 56 60 60 54 48 46 42 41 36 37 40 42 40 38 22 45 51 49 45 34 33 37 43
27 29 25 29 34 40 35 38 41 45 48 52 51 48 46 47 48 51 54 56 57 61 61 61 58 55 49 46 44 42 38 31 31 31 26 28 56 45 53 46 45 43 46 52
32 26 26 28 34 36 40 39 45 50 51 51 51 48 48 50 52 55 54 53 58 63 64 61 59 58 57 55 56 58 47 28 42 29 28 30 34 91 61 48 53 57 52 54
34 38 40 31 36 34 38 43 48 51 53 54 52 50 52 53 56 57 57 59 59 58 59 57 56 55 54 50 47 51 51 43 29 31 36 39 37 25 41 48 66 54 54 65
36 35 40 43 45 46 51 49 43 50 55 55 56 56 55 56 59 59 61 61 61 62 61 63 62 61 59 57 53 52 53 41 30 49 44 44 37 45 44 50 50 50 61 69
47 46 46 49 53 51 48 48 51 52 53 53 51 55 59 60 61 60 64 66 65 65 67 65 63 63 64 63 59 52 52 53 48 46 50 42 34 32 43 39 57 71 64 57
50 47 47 45 46 48 51 56 54 50 53 55 56 57 60 63 57 63 63 63 64 67 68 65 63 64 65 67 68 65 57 52 49 48 49 47 40 22 17 20 46 41 75 74
45 46 47 48 48 53 58 55 54 59 58 59 59 64 65 57 59 65 64 66 68 69 70 69 67 67 69 74 72 68 62 58 57 56 52 53 49 42 48 52 59 75 77 72
52 52 45 49 52 58 58 59 61 60 60 62 67 62 55 56 69 70 67 69 71 73 73 73 75 75 76 75 70 66 63 60 57 57 58 56 58 59 56 64 67 73 75 74
54 52 51 57 58 60 62 66 66 66 63 65 63 57 60 66 75 74 74 73 73 72 74 78 80 82 82 78 74 70 66 65 64 62 62 61 61 62 64 65 68 72 71 72
62 65 66 61 58 59 65 64 68 68 65 65 61 61 69 76 79 76 75 74 73 74 77 80 84 84 80 77 73 71 72 74 74 72 73 72 70 69 68 69 70 69 67 66
62 67 66 64 62 60 61 61 63 59 62 64 64 69 77 79 78 77 76 73 72 75 80 85 84 82 79 77 76 77 79 81 80 82 83 81 80 76 75 73 71 68 68 65
67 69 68 64 60 58 58 62 66 67 69 68 72 77 78 78 79 78 76 77 80 81 84 82 79 78 81 83 84 85 87 87 85 82 83 81 79 76 71 68 61 64 61 57
70 68 66 67 64 63 62 64 66 68 69 72 75 77 79 80 80 79 80 82 85 88 84 79 78 80 83 86 88 87 86 83 81 78 73 72 69 67 65 61 64 63 56 48
70 69 68 66 64 64 66 66 64 65 70 71 73 77 79 78 78 81 82 85 87 84 80 79 81 85 87 88 88 85 85 73 58 50 51 54 55 57 55 59 59 49 40 33
67 68 67 64 64 66 66 64 63 65 68 73 75 76 75 77 80 82 85 86 84 79 79 82 85 86 86 84 83 78 65 54 48 50 44 53 44 43 46 44 36 30 22 19
60 62 63 64 67 69 67 64 66 70 72 73 71 73 76 77 80 84 84 81 78 80 83 85 85 85 83 82 74 59 45 42 47 51 49 47 37 31 28 28 21 13 15 16
Wind_Direction
195 211 207 203 200 195 263 319 336 324 345 348 354 351 336 342 358 357 360 355 352 353 352 346 339 336 328 321 317 314 312 310 308 310 314 319 318 312 307 302 299 296 294 288
204 189 184 203 223 220 255 289 325 316 313 328 352 357 352 355 359 351 351 347 350 349 347 346 340 333 326 324 322 317 311 308 310 317 323 326 322 319 309 306 308 306 301 293
221 226 221 224 218 232 268 308 297 316 319 337 340 340 344 351 348 350 345 341 346 347 346 343 342 335 329 327 322 315 313 310 307 314 317 316 319 311 307 305 303 300 297 293
217 217 219 241 254 258 264 277 297 316 317 329 328 334 340 344 344 345 341 342 343 343 348 345 342 334 330 323 315 318 313 307 309 306 303 310 310 306 305 302 298 298 297 297
210 209 221 236 243 263 280 278 294 311 317 316 320 325 338 340 343 341 341 343 342 343 339 342 336 333 328 319 312 304 305 298 300 298 310 312 314 307 301 300 299 299 296 291
193 210 221 235 250 256 292 298 301 308 315 309 317 325 333 335 334 336 340 339 341 342 340 333 330 328 324 320 316 303 302 295 299 298 301 307 311 302 298 292 287 284 285 285
219 225 238 251 256 280 299 303 301 306 308 308 315 319 330 331 333 333 331 333 340 339 335 327 319 319 315 314 311 305 302 291 286 289 295 300 312 311 305 301 295 286 285 286
238 245 251 258 267 280 278 281 289 301 309 305 308 315 323 330 334 331 328 331 340 332 333 328 329 319 316 314 311 311 306 284 285 295 300 306 311 307 305 305 298 292 287 285
234 240 254 259 270 271 282 282 287 297 299 301 311 317 327 332 330 325 326 327 339 330 329 329 335 334 327 319 318 312 307 303 306 305 305 306 307 318 307 298 295 294 299 299
250 252 253 269 273 274 273 281 287 291 301 303 309 318 325 327 328 322 326 328 332 329 329 332 333 335 337 336 325 313 304 302 303 304 303 314 273 301 294 294 289 305 311 312
242 255 263 271 274 271 288 291 289 289 295 305 309 319 324 323 321 321 325 329 325 328 327 329 332 333 333 333 326 317 315 308 296 302 299 283 284 297 290 290 285 293 311 314
245 241 258 261 260 267 279 286 290 294 298 304 310 315 319 318 319 320 324 322 324 323 327 330 329 328 330 333 331 325 324 324 316 307 319 339 287 285 289 286 294 291 295 307
246 243 247 244 264 281 287 292 291 298 303 304 309 313 316 317 316 320 319 322 324 323 322 320 319 318 323 325 323 315 313 327 289 316 322 294 258 291 299 278 302 287 287 302
234 234 245 264 272 276 278 284 294 296 301 307 311 313 312 315 316 317 318 320 319 318 319 319 319 320 323 323 323 317 312 304 286 289 287 287 282 284 288 297 307 303 288 297
244 252 258 265 268 272 274 286 296 301 302 302 304 307 309 311 310 314 319 321 319 319 317 318 316 318 320 320 319 314 308 302 294 288 288 281 278 292 302 281 294 309 293 300
242 249 261 265 264 262 269 287 295 298 296 299 303 305 306 306 308 316 318 315 313 312 314 313 313 315 315 315 316 314 311 304 297 291 288 285 275 271 261 262 248 281 266 294
246 252 266 265 262 270 284 289 291 295 298 301 301 303 303 301 307 316 313 311 311 312 311 310 312 312 314 316 314 311 309 305 303 300 295 292 286 270 257 257 269 281 288 296
247 250 256 260 274 284 288 290 291 292 296 299 301 301 298 298 309 311 310 309 310 311 311 312 314 315 313 310 308 305 301 300 297 295 291 288 286 285 273 277 277 281 288 293
245 257 262 275 281 287 289 290 292 293 295 297 299 294 290 297 305 307 309 311 311 311 310 310 312 312 310 309 307 305 302 299 296 294 292 289 285 282 281 280 280 281 280 279
249 254 262 270 274 279 282 287 289 292 297 299 299 297 300 301 303 306 308 309 308 308 308 308 308 308 307 306 306 305 303 301 300 300 298 295 293 290 288 286 284 282 282 282
255 257 260 265 271 276 280 284 288 291 294 295 291 291 294 297 299 302 304 304 305 305 306 307 308 307 307 306 305 304 304 303 303 299 296 295 294 292 292 291 290 291 288 285
260 265 270 273 274 276 278 282 284 285 288 291 288 289 292 296 300 302 303 303 305 307 308 309 308 308 306 308 308 307 303 300 299 297 295 293 292 291 291 290 291 299 295 290
265 267 270 273 277 277 277 278 281 285 288 287 290 294 298 301 302 303 305 307 308 308 310 309 307 306 306 307 306 304 302 302 300 297 293 289 288 285 286 286 296 298 294 290
263 266 268 272 276 278 278 280 282 284 285 288 291 294 298 300 301 303 305 306 308 308 309 308 307 308 308 308 306 305 303 302 293 290 293 296 290 285 287 288 291 295 288 280
269 271 273 275 275 274 275 278 281 281 284 287 291 295 297 299 301 303 305 306 306 308 307 309 310 309 310 309 309 308 305 299 277 282 292 302 291 287 286 286 291 285 276 272
268 272 274 275 275 277 282 286 285 287 290 292 294 296 298 300 302 304 304 306 308 307 310 312 312 313 313 314 314 312 303 290 279 284 303 296 298 300 288 280 286 267 269 260
Height
11050 11052 11053 11055 11055 11055 11054 11053 11052 11054 11049 11051 11048 11046 11044 11043 11037 11034 11031 11029 11026 11020 11015 11009 11004 11000 10997 10993 10990 10986 10983 10980 10977 10974 10971 10968 10965 10962 10959 10957 10956 10955 10953 10950
11050 11049 11051 11053 11055 11055 11058 11054 11055 11057 11054 11053 11048 11045 11042 11037 11037 11034 11030 11027 11021 11016 11011 11006 11001 10996 10992 10988 10984 10980 10977 10973 10970 10967 10962 10959 10955 10952 10948 10946 10943 10943 10943 10943
11048 11049 11051 11051 11052 11054 11054 11056 11059 11057 11054 11051 11048 11046 11043 11039 11037 11031 11027 11023 11018 11013 11006 11001 10996 10992 10988 10983 10978 10973 10969 10968 10964 10960 10956 10951 10948 10944 10940 10937 10935 10933 10932 10931
11045 11046 11050 11051 11052 11051 11052 11052 11053 11053 11052 11048 11047 11044 11041 11038 11032 11028 11023 11014 11006 11001 11002 10995 10988 10984 10982 10977 10971 10964 10959 10958 10956 10952 10947 10944 10941 10936 10932 10928 10926 10923 10922 10920
11041 11045 11046 11046 11047 11048 11047 11046 11047 11045 11046 11044 11045 11042 11040 11036 11032 11026 11020 11013 11005 10994 10981 10984 10983 10978 10972 10967 10963 10959 10954 10949 10943 10941 10940 10937 10933 10930 10925 10921 10917 10915 10913 10913
11038 11041 11043 11045 11044 11043 11042 11041 11043 11042 11042 11041 11038 11038 11035 11032 11028 11023 11016 11009 11006 11002 10992 10982 10970 10965 10963 10956 10951 10947 10943 10940 10937 10934 10932 10928 10923 10921 10919 10916 10913 10909 10907 10905
11034 11036 11039 11040 11039 11039 11038 11035 11038 11038 11038 11039 11035 11033 11031 11028 11023 11018 11013 11008 11006 11003 10998 10990 10978 10967 10957 10953 10946 10941 10935 10933 10929 10928 10926 10923 10920 10916 10912 10908 10905 10900 10895 10893
11032 11033 11034 11035 11036 11034 11032 11034 11034 11032 11031 11033 11030 11030 11027 11020 11015 11009 11001 10998 10999 10992 10989 10984 10981 10971 10961 10951 10942 10934 10929 10929 10925 10923 10919 10915 10911 10910 10906 10903 10903 10897 10889 10884
11025 11027 11027 11029 11028 11027 11026 11029 11027 11027 11027 11026 11025 11020 11018 11013 11005 10998 10992 10985 10986 10979 10977 10972 10968 10968 10963 10950 10937 10928 10924 10919 10916 10916 10908 10902 10895 10898 10902 10900 10893 10888 10884 10879
11021 11020 11023 11024 11023 11022 11021 11020 11021 11019 11021 11021 11020 11018 11013 11006 10999 10987 10982 10973 10968 10965 10958 10954 10955 10951 10943 10938 10930 10924 10918 10912 10907 10901 10896 10889 10891 10888 10892 10891 10880 10876 10871 10866
11015 11015 11017 11019 11019 11018 11015 11013 11011 11012 11013 11012 11008 11006 11002 10996 10990 10982 10972 10966 10959 10951 10947 10943 10939 10935 10932 10928 10920 10912 10907 10905 10900 10894 10887 10884 10883 10878 10884 10880 10869 10861 10856 10851
11009 11011 11013 11013 11012 11012 11010 11007 11004 11001 11003 11005 11001 10995 10991 10985 10980 10975 10969 10963 10954 10945 10938 10932 10927 10920 10916 10911 10901 10890 10889 10891 10888 10889 10895 10902 10935 10884 10878 10869 10858 10851 10846 10838
11004 11004 11004 11006 11007 11006 11004 11001 10996 10993 10990 10992 10990 10983 10977 10974 10968 10965 10959 10952 10944 10937 10935 10931 10925 10921 10915 10909 10900 10887 10880 10883 10871 10872 10885 10887 10880 10862 10854 10840 10839 10829 10825 10819
10998 10998 10999 11000 11000 11000 10997 10996 10997 10993 10986 10979 10972 10967 10965 10961 10956 10951 10946 10943 10938 10930 10925 10916 10909 10904 10900 10893 10886 10875 10869 10872 10872 10867 10864 10850 10844 10844 10839 10833 10825 10813 10804 10797
10991 10993 10996 10994 10989 10989 10989 10990 10989 10987 10980 10973 10971 10963 10954 10951 10947 10943 10936 10927 10918 10912 10906 10903 10895 10888 10883 10877 10873 10867 10857 10852 10849 10846 10839 10833 10831 10826 10833 10840 10821 10808 10788 10782
10985 10985 10984 10984 10983 10981 10982 10984 10980 10976 10969 10964 10958 10953 10947 10941 10936 10932 10927 10918 10911 10904 10898 10892 10885 10879 10873 10865 10854 10846 10842 10838 10834 10830 10824 10816 10814 10811 10815 10807 10801 10792 10775 10763
10975 10976 10975 10975 10975 10973 10974 10973 10968 10959 10957 10952 10946 10941 10936 10933 10929 10924 10919 10909 10899 10892 10884 10877 10873 10867 10859 10849 10839 10831 10824 10818 10811 10806 10805 10798 10795 10798 10788 10784 10773 10760 10749 10744
10967 10969 10969 10968 10967 10962 10962 10956 10954 10951 10945 10938 10931 10927 10926 10924 10916 10912 10905 10898 10890 10878 10866 10858 10852 10847 10841 10834 10827 10818 10811 10806 10801 10794 10788 10784 10780 10777 10774 10765 10756 10743 10731 10725
10959 10961 10962 10962 10959 10954 10946 10941 10938 10936 10935 10928 10922 10919 10917 10911 10905 10900 10892 10884 10875 10864 10852 10843 10837 10829 10820 10812 10804 10796 10790 10784 10779 10776 10770 10766 10762 10757 10751 10747 10739 10729 10722 10715
10955 10951 10952 10954 10953 10950 10939 10936 10927 10922 10919 10910 10906 10906 10902 10896 10889 10883 10877 10870 10861 10851 10840 10831 10821 10811 10801 10793 10786 10777 10767 10757 10750 10745 10739 10733 10729 10725 10720 10713 10707 10700 10693 10689
10940 10935 10940 10943 10948 10946 10933 10926 10918 10910 10907 10904 10901 10896 10892 10884 10880 10874 10867 10859 10852 10842 10830 10817 10805 10792 10781 10772 10764 10755 10744 10735 10728 10715 10704 10700 10695 10691 10684 10680 10674 10670 10664 10660
10924 10924 10926 10931 10933 10930 10925 10915 10906 10903 10899 10896 10891 10884 10876 10871 10865 10857 10850 10842 10833 10824 10813 10801 10789 10775 10760 10750 10742 10733 10720 10709 10701 10692 10681 10673 10666 10660 10656 10652 10648 10642 10636 10633
10914 10915 10913 10912 10915 10914 10910 10903 10897 10894 10889 10881 10873 10866 10859 10852 10845 10837 10829 10819 10809 10800 10793 10781 10770 10759 10747 10734 10722 10711 10700 10690 10678 10667 10657 10648 10643 10639 10634 10632 10627 10623 10619 10618
10902 10901 10900 10900 10900 10895 10889 10888 10889 10884 10874 10868 10862 10854 10847 10837 10829 10821 10812 10802 10792 10782 10773 10763 10751 10739 10727 10713 10699 10684 10674 10665 10654 10646 10638 10632 10626 10622 10619 10616 10612 10611 10608 10606
10888 10882 10883 10884 10882 10876 10875 10879 10877 10869 10864 10856 10849 10841 10832 10824 10813 10804 10795 10784 10775 10766 10755 10744 10732 10718 10706 10691 10677 10662 10649 10640 10633 10629 10627 10622 10616 10612 10608 10602 10604 10603 10602 10602
10874 10869 10867 10864 10859 10858 10861 10861 10856 10852 10846 10840 10832 10825 10816 10808 10799 10788 10777 10769 10759 10746 10735 10723 10710 10696 10683 10668 10654 10641 10631 10627 10623 10619 10617 10613 10610 10605 10601 10599 10598 10599 10598 10599